{"data":{"norad_id":63822,"intl_designator":"2025-092U","name":"STARLINK-34094","alt_names":[],"object_type":"PAYLOAD","status":"ACTIVE","operator":null,"country":"US","launch_date":"2025-05-04","launch_site_code":"AFETR","launch_vehicle":null,"mission":null,"orbit_class":"UNKNOWN","rcs_meters":null,"size_class":null,"mass_kg":null,"dimensions":null,"purposes":["comms"],"wikipedia_slug":null,"has_3d_model":false,"image_url":null,"decayed_at":null,"tle_current":{"epoch":"2026-09-20T02:20:57.864480Z","epoch_age_seconds":184640,"freshness":"STALE","line1":"1 63822U 25092U   26263.09789195  .00011779  00000+0  43681-3 0  9995","line2":"2 63822  43.0019 151.4156 0001762 260.4822  99.5831 15.27584744 78437","mean_motion":15.27584744,"eccentricity":0.0001762,"inclination_deg":43.0019,"raan_deg":151.4156,"arg_perigee_deg":260.4822,"mean_anomaly_deg":99.5831,"bstar":0.00043681,"rev_number":7843,"period_min":94.266455962983,"perigee_km":481.82595234661,"apogee_km":484.24382932094,"semimajor_km":6861.1718908338,"source":"CELESTRAK","updated_at":"2026-09-21T09:00:35.107707Z"}}}